Location: Dambovana
(46.2000°N, 22.6667°E)
Time: 20:32:56
(UTC+00:00)

Daily predictions for brighter satellites

Satellite Brightness Start Highest point End
(mag) Time Altitude Azimuth Time Altitude Azimuth Time Altitude Azimuth
Cosmos 1869 Rocket 3.9 15:34:44 10° N 15:38:59 43° ENE 15:43:12 10° SSE
RESURS DK-1 4.1 15:39:28 10° NNE 15:41:34 14° NE 15:43:39 10° ENE
Cosmos 405 Rocket 3.0 15:39:25 10° NNW 15:43:00 65° W 15:46:34 10° S
ASTEX 1 3.4 15:40:09 10° S 15:45:01 90° E 15:49:53 10° N
Meteor 1-12 Rocket 4.4 15:40:29 10° N 15:46:03 52° ENE 15:51:40 10° SSE
Meteor 2-10 Rocket 4.1 15:41:51 10° NNW 15:47:36 75° W 15:53:23 10° S
SMAP 3.1 15:46:45 10° SSE 15:51:24 85° ENE 15:56:06 10° NNW
Cosmos 2237 Rocket 3.5 15:48:15 10° SSE 15:52:22 21° E 15:56:30 10° NE
ATLAS CENTAUR R/B 1.9 15:50:04 10° NW 15:54:06 62° WSW 15:58:08 10° SSE
Cosmos 1763 Rocket 4.1 15:49:40 10° SSE 15:54:26 37° ESE 15:59:11 10° NE
SJ-7 4.3 15:50:59 10° SSE 15:54:40 55° ENE 15:58:24 10° N
USA 306 3.5 15:54:40 10° NW 15:56:01 15° N 15:57:36 10° NNE
Meteor 1-15 Rocket 4.4 15:53:34 10° NNW 15:59:25 85° W 16:05:08 10° S
BREEZE-M TANK 2.9 15:57:02 10° W 16:00:40 72° S 16:05:50 10° ESE
Cosmos 2278 Rocket 2.6 15:55:52 10° NNW 16:01:13 41° NE 16:06:32 10° SE
Cosmos 1943 Rocket 2.8 15:56:21 10° NNW 16:01:26 33° NE 16:06:29 10° ESE
USA 215 4.0 15:55:50 10° NE 16:01:52 41° NNW 16:07:54 10° W
CSL-04 DEB 4.2 15:58:57 10° SSE 16:02:51 88° ENE 16:06:43 10° NNW
ARGOS Delta rocket 3.7 15:59:46 10° SSE 16:04:31 80° ENE 16:09:05 10° N
CZ-2D R/B 4.3 16:02:55 10° S 16:07:06 57° W 16:11:19 10° NNW
COSMO-SKYMED 1 3.2 16:03:12 10° NNE 16:07:12 34° E 16:11:09 10° SSE
Cosmos 1862 Rocket 4.5 16:03:51 10° SE 16:07:29 27° E 16:11:10 10° NNE
Cosmos 2219 Rocket 2.8 16:02:32 10° SW 16:08:01 57° WNW 16:13:34 10° NNE
Cosmos 540 Rocket 4.0 16:04:38 10° S 16:09:22 39° ESE 16:14:06 10° NE
Meteor 1-31 Rocket 3.5 16:09:45 10° SE 16:12:44 26° ENE 16:15:46 10° N
BREEZE-M DEB (TANK) 1.1 16:11:07 10° WSW 16:13:25 74° SSE 16:15:15 19° ENE
Lacrosse 5 rocket 3.7 16:11:56 10° WNW 16:15:21 26° SW 16:18:46 10° S
Cosmos 2279 Rocket 4.0 16:10:03 10° N 16:16:12 60° ENE 16:22:18 10° SSE
SL-14 R/B 4.4 16:13:55 10° SSW 16:17:30 42° WNW 16:21:07 10° N
Cosmos 2322 3.8 16:11:59 10° SSW 16:17:43 89° WNW 16:23:29 10° NNE
ISS -2.0 16:15:20 10° S 16:17:52 20° SE 16:19:17 16° ESE
Cosmos 292 Rocket 4.3 16:15:29 10° NNW 16:20:13 64° WSW 16:24:52 10° S
IGS 5A 3.5 16:17:52 10° S 16:21:53 79° W 16:25:55 10° NNW
Cosmos 2228 Rocket 3.5 16:17:55 10° SSE 16:22:09 42° E 16:26:27 10° NNE
MINOTAUR IV R/B 4.5 16:18:31 10° NNW 16:23:03 77° ENE 16:27:33 10° SSE
Cosmos 1455 2.0 16:20:24 10° NNW 16:23:37 71° W 16:26:48 10° S
Meteor 1-23 Rocket 4.5 16:21:08 10° SSW 16:26:44 71° WNW 16:32:19 10° N
ATLAS 2AS CENTAUR R/B 3.6 16:23:14 10° NNW 16:29:05 29° NNE 16:32:29 19° ENE
YAOGAN 1 3.0 16:26:01 10° SE 16:29:57 37° ENE 16:33:54 10° N
Cosmos 1733 Rocket 3.0 16:27:33 10° N 16:31:54 58° ENE 16:36:14 10° SSE
ACS3 Solar Sail 2.0 16:28:38 10° SE 16:34:50 56° ENE 16:41:04 10° N
Okean 3 3.3 16:32:55 10° S 16:36:57 64° E 16:41:02 10° NNE
Resurs 1-3 4.3 16:33:57 10° SE 16:37:39 29° ENE 16:41:23 10° N
EO 1 Delta rocket 3.9 16:33:21 10° NNE 16:38:04 51° E 16:42:33 10° S
SL-16 R/B 4.0 16:36:36 10° SE 16:37:56 13° ESE 16:37:56 13° ESE
Cosmos 990 Rocket 4.0 16:35:04 10° NNW 16:40:20 88° WSW 16:45:34 10° SSE
Cosmos 1980 3.8 16:35:49 10° S 16:41:16 53° ESE 16:45:18 18° NE
CZ-4 R/B 4.4 16:40:55 10° S 16:44:56 79° WSW 16:48:58 10° NNW
Cosmos 372 Rocket 4.2 16:41:28 10° N 16:46:21 44° ENE 16:51:12 10° SE
COSMOS 2428 3.2 16:45:48 10° SW 16:51:26 61° WNW 16:57:05 10° NNE
Cosmos 2333 Rocket 4.4 16:48:11 10° W 16:52:06 19° NW 16:56:02 10° N
BlueWalker 3 3.1 16:51:14 10° NW 16:54:24 27° N 16:54:48 26° NNE
SKYMED 2 3.7 16:50:57 10° N 16:55:19 76° WNW 16:59:38 10° SSW
Cosmos 1937 Rocket 3.8 16:51:16 10° N 16:56:08 41° ENE 16:58:04 29° ESE
Landsat 7 4.0 16:54:52 10° S 16:59:32 71° WSW 17:04:14 10° NNW
Cosmos 2369 Rocket 3.7 16:55:55 10° N 16:58:55 19° NNE 16:58:55 19° NNE
NOAA 6 3.9 16:56:48 10° SSE 17:01:54 90° WSW 17:07:03 10° NNW
NOSS 0 Rocket 3.9 16:56:15 10° SSW 17:02:24 82° WNW 17:07:25 16° NNE
Cosmos 2344 3.6 16:54:51 10° SW 17:02:29 72° NW 17:08:09 18° NE
Lacrosse 5 3.8 16:59:12 10° WNW 17:03:35 29° SW 17:07:56 10° S
Cosmos 1953 2.8 17:01:48 10° NNW 17:05:27 56° W 17:09:06 10° S
NOSS 8 (A) 4.3 17:03:32 10° NW 17:06:05 61° N 17:06:05 61° N
DNEPR-1 R/B 3.5 17:02:02 10° NW 17:06:55 74° NE 17:08:31 38° SE
Okean 2 3.4 17:03:34 10° SSW 17:07:30 72° W 17:10:32 16° N
BREEZE-M DEB (TANK) 3.3 16:59:22 10° W 17:07:41 62° NNW 17:08:39 45° NE
Cosmos 2026 Rocket 4.3 17:06:11 10° SSE 17:12:05 42° E 17:14:30 30° NE
SPOT 1/Viking Rocket 3.4 17:10:28 10° SSE 17:15:37 72° ENE 17:20:45 10° N
Cosmos 1174 4.1 17:13:55 10° NW 17:17:33 67° WSW 17:20:12 22° SSE
Aureole 1 Rocket 4.3 17:10:56 10° NNW 17:18:43 87° WSW 17:25:43 10° SSE
Okean 1-7 2.8 17:14:43 10° S 17:19:00 88° E 17:20:27 41° N
RESURS DK-1 2.2 17:15:40 10° NNW 17:19:42 82° WSW 17:20:38 52° SSE
CZ-4C R/B 1.7 17:15:54 10° SSW 17:20:05 58° ESE 17:20:19 58° ESE
Cosmos 1428 Rocket 4.4 17:14:30 10° S 17:20:39 65° E 17:26:46 10° NNE
Meteor 2-12 Rocket 4.4 17:15:20 10° S 17:21:13 56° E 17:24:42 25° NNE
ADEOS 4.2 17:37:19 40° NNE 17:37:19 40° NNE 17:40:47 10° N
Cosmos 2237 Rocket 2.5 17:30:13 10° SW 17:35:52 65° WNW 17:38:43 30° NNE
Nadezhda 4 Rocket 4.2 17:35:28 10° SSW 17:41:32 68° W 17:47:40 10° N
Cosmos 1898 Rocket 4.0 17:37:56 10° NNW 17:43:09 61° WSW 17:48:22 10° S
USA 215 4.1 17:42:45 33° NNE 17:43:58 35° N 17:49:46 10° WNW
Cosmos 2278 Rocket 3.7 17:40:07 10° NW 17:45:12 35° WSW 17:50:15 10° S
Cosmos 1943 Rocket 3.2 17:39:57 10° NW 17:45:19 45° WSW 17:50:38 10° S
Cosmos 2195 Rocket 4.3 17:39:44 10° S 17:45:57 87° E 17:50:22 20° N
Cosmos 1818 4.0 17:42:53 10° NNW 17:47:09 49° N 17:47:09 49° N
Cosmos 841 Rocket 3.6 17:46:33 10° SSW 17:51:48 74° WNW 17:52:17 68° NNW
ISS -1.2 17:50:57 10° WSW 17:52:12 21° WSW 17:52:12 21° WSW
ACS3 Solar Sail 3.7 18:13:19 10° SSW 18:18:42 28° W 18:24:07 10° NNW
ATLAS 2AS CENTAUR R/B 2.7 18:14:04 10° NW 18:19:57 68° NNW 18:19:57 68° NNW
SL-16 R/B 3.5 18:17:08 10° SSW 18:19:53 30° SSW 18:19:53 30° SSW
Cosmos 1092 Rocket 4.3 18:17:59 10° SSW 18:24:04 63° WNW 18:24:23 62° WNW
Cosmos 2369 Rocket 4.2 18:39:04 10° NNW 18:40:44 20° NNW 18:40:44 20° NNW
